User: anonymous   Login
Location: Unspecified
(0.0000°N, 0.0000°E)
Time: 22:16:23
(UTC+00:00)
Language:

OBJECT F - Orbit

View from above orbital plane
View from above orbital plane
View from above satellite
View from above satellite

Ground track
Ground track

The orbit is defined by the following mean orbital elements,

1 61740U          26145.62705385 +.00000000 +00000-0 +24895-3 0 00006
2 61740  97.3262 345.1078 0013895 133.8679 226.3694 14.95777561    04
Epoch (UTC): 25 May 2026 15:02:57
Eccentricity: 0.0013895
inclination: 97.3262°
perigee height: 570 km
apogee height: 590 km
right ascension of ascending node: 345.1078°
argument of perigee: 133.8679°
revolutions per day: 14.95777561
mean anomaly at epoch: 226.3694°

The dashed part of the orbit path shows where the satellite is in the earth's shadow,  

DLR